C/2018 C2 ( Lemmon )

Japanese version
Home page
Updated on October 28, 2018

---------------------------------------------------------------------

* Profile

Discovery Date February 5, 2018
Magnitude 19.9 mag
Discoverer Mount Lemmon Survey

* Pictures

* Orbital Elements

Epoch 2018 June 11.0 TT = JDT 2458280.5
T 2018 June 2.22199 TT                                  MPCW
q   1.9565137            (2000.0)            P               Q
z  -0.0009365      Peri.  134.13803     -0.57781304     +0.58838389
 +/-0.0000007      Node    91.13907     -0.81109406     -0.49112596
e   1.0018322      Incl.   34.45377     +0.09087637     -0.64233923
From 1619 observations 2018 Jan. 28-Sept. 22, mean residual 0".3.

* Finding Charts

* Magnitudes Graph

        m1 = 8.5 + 5 log d + 22.0 log r(t - 30)

---------------------------------------------------------------------

The orbital elements are published on M.P.E.C. 2018-U70.
The charts are made with StellaNavigator Ver.10 (AstroArts).
The magnitudes graphs are made with Comet for Windows.

---------------------------------------------------------------------

Copyright(C) Seiichi Yoshida (comet@aerith.net). All rights reserved.